Regional Weather Roundup
Issued by NWS

Home | Current Version | Previous Version | Graphics & Text | Print | Product List | Glossary On
Versions: 1 2 3 4 5 6 7 8 9 10 11 12 13 14 15 16 17 18 19 20 21 22 23 24 25 26 27 28 29 30 31 32 33 34 35 36 37 38 39 40 41 42 43 44 45 46 47 48 49 50
000
ASUS43 KLOT 211012
RWRIL

ILLINOIS REGIONAL WEATHER ROUNDUP
NATIONAL WEATHER SERVICE CHICAGO/ROMEOVILLE IL
400 AM CST SAT JAN 21 2017

NOTE: "FAIR" INDICATES FEW OR NO CLOUDS BELOW 12,000 FEET WITH NO
SIGNIFICANT WEATHER AND/OR OBSTRUCTIONS TO VISIBILITY.

* THESE STATIONS ARE NOT UNDER NWS QUALITY CONTROL. THEY ALSO MAY NOT
  REPORT WEATHER SUCH AS PRECIPITATION OR FOG.

ILZ001-002-007-009-015-016-024-211100-
NORTHWEST ILLINOIS

CITY           SKY/WX    TMP DP  RH WIND       PRES   REMARKS
MOLINE         PTCLDY    47  45  93 S9        29.44F FOG
STERLING*      FOG       42  42 100 E5        29.50F VSB 1/4
SAVANNA*       FOG       41  41  99 E5        29.48F VSB 3/4
$$

ILZ003-004-008-010-011-017-018-211100-
NORTH CENTRAL ILLINOIS

CITY           SKY/WX    TMP DP  RH WIND       PRES   REMARKS
ROCKFORD       FOG       44  43  96 SE6       29.53F VSB 1/2
FREEPORT*      FOG       38  38 100 SE6       29.52F VSB 1/2 WCI  34
ROCHELLE*      FOG       44  44 100 S8        29.52F VSB 1
DE KALB*       FOG       46  46 100 SE10      29.52F VSB 1/4
$$

ILZ005-006-012>014-019>023-211100-
NORTHEAST ILLINOIS

CITY           SKY/WX    TMP DP  RH WIND       PRES   REMARKS
CHICAGO-OHARE  CLOUDY    46  46 100 S5        29.53F FOG
CHICAGO-MIDWAY CLOUDY    47  46  97 SE6       29.56F FOG
AURORA         CLOUDY    48  47  96 S8        29.53F FOG
LANSING*       PTCLDY    47  47 100 SE6       29.57F FOG
JOLIET*        CLOUDY    48  47  99 SE5       29.54F FOG
WAUKEGAN       FOG       39  39 100 CALM      29.54F VSB 1/2
DUPAGE AIRPORT CLOUDY    48  46  93 S10       29.52F FOG
KANKAKEE*      CLEAR     50  49  97 S10       29.57F
WHEELING       CLOUDY    44  43  96 SE3       29.55F FOG
MORRIS*        CLEAR     45  45  99 S8        29.52F FOG
NORTHERLY ISL    N/A     39  38  96 NE2         N/A
$$

LMZ740>746-211100-
SOUTHERN LAKE MICHIGAN

STATION/POSITION SKY/WX   TEMP    WIND        PRES    VSBY  WAVE
                          AIR SEA DIR/SP/G                  HT/PER
                          (F)     (DEG/KT/KT) (MB)    (MI)  (FT/S)
HARRISON CRIB              45     160/  9/ 10   N/A
BURNHAM HARBOR             38      40/  3       N/A
CALUMET HARBOR             49     160/  5/  7 1000.8F
BURNS HARBOR               51     160/  8/ 20 1002.4F
MICHIGAN CITY              50     140/ 10/ 13   N/A
$$

ILZ025>027-034>036-040-047-049-050-058-095>099-211100-
WEST-CENTRAL ILLINOIS

CITY           SKY/WX    TMP DP  RH WIND       PRES   REMARKS
QUINCY         CLEAR     50  45  83 S9        29.46F
GALESBURG*     FOG       43  43 100 SE3       29.47F VSB 1/2
MACOMB*        CLEAR     45  45 100 S8        29.49F FOG
JACKSONVILLE*  CLEAR     51  47  88 S12G20    29.51F
PITTSFIELD*    CLEAR     50  46  85 S10       29.50F
$$

ILZ028>032-037-038-041>044-048-051>054-059>061-211100-
CENTRAL ILLINOIS

CITY           SKY/WX    TMP DP  RH WIND       PRES   REMARKS
PONTIAC        CLEAR     47  47 100 S13       29.54F FOG
BLOOMINGTON    CLEAR     46  46 100 S12       29.55F
DECATUR        CLEAR     49  49 100 S12       29.56F
PEORIA         CLEAR     46  46 100 S7        29.51F FOG
LACON*         CLEAR     47  47 100 S7        29.50F
LINCOLN*       CLEAR     48  48 100 S10       29.54F
SPRINGFIELD    CLEAR     53  49  86 S16       29.54F
TAYLORVILLE    CLEAR     50  48  93 S8        29.56F
$$

ILZ033-039-045-046-055>057-062-063-211100-
EAST-CENTRAL ILLINOIS

CITY           SKY/WX    TMP DP  RH WIND       PRES   REMARKS
CHAMPAIGN      CLEAR     49  47  93 S13       29.58F
RANTOUL*       FOG       47  47  99 SE7       29.58F VSB 1/2
MATTOON        CLEAR     50  48  93 S9        29.60F
PARIS*         PTCLDY    49  49  99 S9        29.62S
$$

ILZ079-100>102-211100-
SOUTHWEST ILLINOIS

CITY           SKY/WX    TMP DP  RH WIND       PRES   REMARKS
ALTON          CLEAR     51  47  86 S13       29.55F
BELLEVILLE     PTCLDY    49  49 100 E3        29.56F
CAHOKIA*       CLEAR     50  46  86 SE5       29.55F
SPARTA*        CLEAR     53  48  83 S10       29.61F
$$

ILZ064>066-069>071-074>076-080>082-084>086-088>090-092>094-211100-
SOUTH-CENTRAL ILLINOIS

CITY           SKY/WX    TMP DP  RH WIND       PRES   REMARKS
CARBONDALE     PTCLDY    49  48  97 E3        29.62F
CAIRO*         CLOUDY    55  52  89 S6        29.63F
EFFINGHAM*     CLEAR     50  50 100 SE6       29.62F
MARION         CLOUDY    54  52  94 S7        29.64F
MT. VERNON     PTCLDY    48  47  96 CALM      29.62F
CENTRALIA*     MOCLDY    53  50  89 S12       29.60F
SALEM*         PTCLDY    55  49  81 S10       29.60F
METROPOLIS*    CLOUDY    52  51  95 CALM      29.65F
$$

ILZ067-068-072-073-078-083-087-091-211100-
SOUTHEAST ILLINOIS

CITY           SKY/WX    TMP DP  RH WIND       PRES   REMARKS
LAWRENCEVILLE  PTCLDY    49  49 100 S8        29.65F
FLORA*         PTCLDY    48  47  97 S8        29.62F
FAIRFIELD*     PTCLDY    50  49  97 S3        29.62F
HARRISBURG*    CLOUDY    53  51  94 CALM      29.65F
ROBINSON*      PTCLDY    48  48  99 S7        29.66S FOG
CARMI*         MOCLDY    49  49 100 S7        29.64F
$$

ABBREVIATIONS USED IN REMARKS
   TC - TEMPERATURE IN CELSIUS
  WCI - WIND CHILL INDEX
   HX - HEAT INDEX
  VSB - VISIBILITY
$$





USA.gov is the U.S. government's official web portal to all federal, state and local government web resources and services.